Jackson, MS

6:11 PM CDT on July 21, 2017 (GMT -0500)
Jackson-Evers International

Weather History for KJAN - December, 2013

Change the Weather History Date:

Monday, December 23, 2013

  Actual Average Record
Temperature  
Mean Temperature 38 °F 46 °F  
Max Temperature 45 °F 57 °F 80 °F (1931)
Min Temperature 31 °F 36 °F 4 °F (1989)
Degree Days  
Heating Degree Days 27 19  
Month to date heating degree days 377 388  
Since 1 July heating degree days 839 796  
Cooling Degree Days 0 0  
Month to date cooling degree days 12 0  
Year to date cooling degree days 2359 2253  
Moisture  
Dew Point 31 °F    
Average Humidity 71    
Maximum Humidity 89    
Minimum Humidity 53    
Precipitation  
Precipitation 0.00 in 0.16 in 3.00 in (1974)
Month to date precipitation 3.67 3.92  
Year to date precipitation 63.43 52.91  
Sea Level Pressure  
Sea Level Pressure 30.37 in    
Wind  
Wind Speed 11 mph (NNW)    
Max Wind Speed 22 mph    
Max Gust Speed 22 mph    
Visibility 10 miles    
Events      
T = Trace of Precipitation, MM = Missing Value Source: NWS Daily Summary

Daily Weather History Graph

Daily Weather History Graph

Search for Another Location

Airport or City:

Trip Planner

Search our weather history database for the weather conditions in past years. The results will help you decide how hot, cold, wet, or windy it might be!

Date:

Astronomy

Dec. 23, 2013 Rise Set
Actual Time 6:58 AM CST 5:00 PM CST
Civil Twilight 6:31 AM CST 5:27 PM CST
Nautical Twilight 6:00 AM CST 5:58 PM CST
Astronomical Twilight 5:30 AM CST 6:28 PM CST
Moon 10:50 PM CST (12/23) 10:42 AM CST (12/23)
Length of Visible Light 10h 56m
Length of Day
10h 01m
Waning Gibbous, 68% of the Moon is Illuminated
Dec 23
Waning Gibbous
Dec 25
Last Quarter
Jan 1
New
Jan 7
First Quarter
Jan 15
Full

Hourly Weather History & Observations

Time (CST) Temp. Windchill Dew Point Humidity Pressure Visibility Wind Dir Wind Speed Gust Speed Precip Events Conditions
12:05 AM 44.6 °F 38.8 °F 39.2 °F 81% 30.22 in 10.0 mi NW 11.5 mph - N/A   Overcast
12:54 AM 44.1 °F 38.1 °F 39.0 °F 82% 30.22 in 10.0 mi NNW 11.5 mph - N/A   Overcast
1:54 AM 43.0 °F 38.2 °F 39.0 °F 86% 30.24 in 10.0 mi NW 8.1 mph - N/A   Overcast
2:16 AM 42.8 °F 36.6 °F 39.2 °F 87% 30.24 in 6.0 mi NNW 11.5 mph - N/A   Overcast
2:54 AM 42.1 °F 37.1 °F 37.9 °F 85% 30.25 in 10.0 mi NW 8.1 mph - N/A   Overcast
3:23 AM 42.8 °F 37.5 °F 37.4 °F 81% 30.26 in 10.0 mi NNW 9.2 mph - N/A   Overcast
3:41 AM 42.8 °F - 37.4 °F 81% 30.26 in 10.0 mi North - - N/A   Overcast
3:54 AM 42.1 °F 36.1 °F 37.0 °F 82% 30.26 in 10.0 mi NW 10.4 mph - N/A   Overcast
4:01 AM 42.8 °F 37.5 °F 37.4 °F 81% 30.26 in 10.0 mi NW 9.2 mph - N/A   Overcast
4:28 AM 42.8 °F 36.6 °F 35.6 °F 76% 30.27 in 10.0 mi NNW 11.5 mph 20.7 mph N/A   Overcast
4:39 AM 41.0 °F 33.5 °F 35.6 °F 81% 30.27 in 10.0 mi NNW 13.8 mph 20.7 mph N/A   Overcast
4:54 AM 41.0 °F 33.9 °F 34.0 °F 76% 30.27 in 10.0 mi North 12.7 mph - N/A   Overcast
5:54 AM 39.0 °F 30.3 °F 33.1 °F 79% 30.30 in 10.0 mi North 16.1 mph 21.9 mph N/A   Overcast
6:54 AM 37.0 °F 30.4 °F 30.0 °F 76% 30.34 in 10.0 mi North 9.2 mph - N/A   Overcast
7:54 AM 37.0 °F 29.3 °F 30.0 °F 76% 30.38 in 10.0 mi NNW 11.5 mph - N/A   Overcast
8:54 AM 37.0 °F 28.5 °F 28.9 °F 73% 30.41 in 10.0 mi North 13.8 mph - N/A   Overcast
9:54 AM 37.9 °F 30.0 °F 28.9 °F 70% 30.43 in 10.0 mi North 12.7 mph - N/A   Overcast
10:54 AM 39.0 °F 32.8 °F 28.9 °F 67% 30.43 in 10.0 mi North 9.2 mph - N/A   Overcast
11:54 AM 39.9 °F 32.1 °F 30.0 °F 68% 30.42 in 10.0 mi North 13.8 mph - N/A   Overcast
12:54 PM 42.1 °F 34.9 °F 30.0 °F 62% 30.40 in 10.0 mi North 13.8 mph - N/A   Mostly Cloudy
1:54 PM 44.1 °F 38.6 °F 30.0 °F 58% 30.39 in 10.0 mi North 10.4 mph - N/A   Mostly Cloudy
2:49 PM 44.6 °F 38.8 °F 28.4 °F 53% 30.39 in 10.0 mi NNW 11.5 mph - N/A   Mostly Cloudy
2:54 PM 44.1 °F 39.5 °F 28.9 °F 55% 30.39 in 10.0 mi NW 8.1 mph 18.4 mph N/A   Mostly Cloudy
3:54 PM 42.1 °F 36.6 °F 28.0 °F 58% 30.41 in 10.0 mi NW 9.2 mph 18.4 mph N/A   Scattered Clouds
4:54 PM 37.9 °F 30.5 °F 28.0 °F 68% 30.42 in 10.0 mi NNW 11.5 mph 17.3 mph N/A   Partly Cloudy
5:54 PM 37.0 °F 29.3 °F 27.0 °F 67% 30.45 in 10.0 mi NNW 11.5 mph - N/A   Partly Cloudy
6:54 PM 35.1 °F 27.9 °F 27.0 °F 72% 30.47 in 10.0 mi NNW 9.2 mph - N/A   Clear
7:54 PM 34.0 °F 27.2 °F 27.0 °F 75% 30.48 in 10.0 mi NNW 8.1 mph - N/A   Clear
8:54 PM 34.0 °F 27.2 °F 27.0 °F 75% 30.49 in 10.0 mi North 8.1 mph - N/A   Clear
9:54 PM 32.0 °F 24.2 °F 27.0 °F 82% 30.51 in 10.0 mi North 9.2 mph - N/A   Clear
10:54 PM 32.0 °F 24.2 °F 26.1 °F 79% 30.51 in 10.0 mi North 9.2 mph - N/A   Clear
11:54 PM 30.9 °F 23.5 °F 26.1 °F 82% 30.51 in 10.0 mi North 8.1 mph - N/A   Clear